Location: Hamburg
(53.5500°N, 10.0000°E)
Time: 14:48:07
(UTC+01:00)

ISS - Visible Passes

Search period start: 11 December 2016 00:00
Search period end: 21 December 2016 00:00
Orbit: 401 x 409 km, 51.6° (Epoch: 11 December)

Date Brightness Start Highest point End Pass type
(mag) Time Alt. Az. Time Alt. Az. Time Alt. Az.
11 Dec -2.9 17:03:50 10° WSW 17:07:05 57° S 17:10:12 11° E visible
11 Dec -2.4 18:40:11 10° W 18:42:53 46° SW 18:42:53 46° SW visible
12 Dec -3.0 17:48:13 10° W 17:51:30 61° S 17:53:03 28° ESE visible
12 Dec -0.3 19:24:45 10° W 19:25:44 16° WSW 19:25:44 16° WSW visible
13 Dec -2.9 16:56:17 10° W 16:59:33 63° S 17:02:50 10° E visible
13 Dec -2.3 18:32:43 10° W 18:35:51 39° SSW 18:35:57 39° SSW visible
14 Dec -2.6 17:40:43 10° W 17:43:56 50° SSW 17:46:14 17° ESE visible
14 Dec -0.5 19:17:32 10° W 19:18:56 17° WSW 19:18:56 17° WSW visible
15 Dec -2.7 16:48:43 10° W 16:51:59 58° S 16:55:15 10° ESE visible
15 Dec -1.4 18:25:18 10° W 18:28:08 26° SSW 18:29:21 21° S visible
16 Dec -1.8 17:33:12 10° W 17:36:16 36° SSW 17:39:19 10° SE visible
16 Dec -0.2 19:11:06 10° WSW 19:12:04 11° SW 19:12:37 11° SSW visible
17 Dec -2.2 16:41:09 10° W 16:44:20 46° SSW 16:47:30 10° ESE visible
17 Dec -0.5 18:18:07 10° WSW 18:20:18 16° SW 18:22:28 10° S visible
18 Dec -0.9 17:25:46 10° W 17:28:27 23° SSW 17:31:09 10° SSE visible
20 Dec -0.1 17:18:40 10° WSW 17:20:30 14° SW 17:22:21 10° S visible
